Time,TemperatureF,DewpointF,PressureIn,WindDirection,WindDirectionDegrees,WindSpeedMPH,WindSpeedGustMPH,Humidity,HourlyPrecipIn,Conditions,Clouds,dailyrainin,SoftwareType,DateUTC
2013-07-01 00:02:00,76.4,57.0,29.68,SSE,152,0.0,0.0,51,0.00,,CLR,0.00,VWS V14.01,2013-07-01 07:02:00,
2013-07-01 00:08:00,76.0,57.7,29.69,SSE,152,0.0,0.0,53,0.00,,CLR,0.00,VWS V14.01,2013-07-01 07:08:00,
2013-07-01 00:13:00,75.9,56.5,29.68,SSE,152,0.0,0.0,51,0.00,,CLR,0.00,VWS V14.01,2013-07-01 07:13:00,
2013-07-01 00:18:00,75.7,56.8,29.68,SSE,152,0.0,0.0,52,0.00,,CLR,0.00,VWS V14.01,2013-07-01 07:18:00,
2013-07-01 00:23:00,75.5,57.2,29.68,SSE,152,0.0,0.0,53,0.00,,CLR,0.00,VWS V14.01,2013-07-01 07:23:00,
2013-07-01 00:28:00,75.1,56.3,29.68,SSE,153,0.0,0.0,52,0.00,,CLR,0.00,VWS V14.01,2013-07-01 07:28:00,
2013-07-01 00:33:00,74.8,56.5,29.68,SSE,152,0.0,0.0,53,0.00,,CLR,0.00,VWS V14.01,2013-07-01 07:33:00,
2013-07-01 00:38:00,75.0,56.7,29.68,SSE,152,0.0,0.0,53,0.00,,CLR,0.00,VWS V14.01,2013-07-01 07:38:00,
2013-07-01 00:43:00,75.1,55.8,29.69,SSE,150,0.0,0.0,51,0.00,,CLR,0.00,VWS V14.01,2013-07-01 07:43:00,
2013-07-01 00:48:00,75.0,55.7,29.69,SSE,149,0.0,0.0,51,0.00,,CLR,0.00,VWS V14.01,2013-07-01 07:48:00,
2013-07-01 00:53:00,74.6,55.8,29.69,SE,145,0.0,2.0,52,0.00,,CLR,0.00,VWS V14.01,2013-07-01 07:53:00,
2013-07-01 00:58:00,74.3,56.1,29.69,South,170,0.0,2.0,53,0.00,,CLR,0.00,VWS V14.01,2013-07-01 07:58:00,
2013-07-01 01:03:00,74.1,55.9,29.69,South,170,0.0,0.0,53,0.00,,CLR,0.00,VWS V14.01,2013-07-01 08:03:00,
2013-07-01 01:08:00,73.8,55.6,29.69,SE,134,0.0,0.0,53,0.00,,CLR,0.00,VWS V14.01,2013-07-01 08:08:00,
2013-07-01 01:13:00,73.5,55.9,29.69,SE,134,0.0,0.0,54,0.00,,CLR,0.00,VWS V14.01,2013-07-01 08:13:00,
2013-07-01 01:18:00,73.3,55.7,29.69,SE,134,0.0,0.0,54,0.00,,CLR,0.00,VWS V14.01,2013-07-01 08:18:00,
2013-07-01 01:23:00,73.3,55.7,29.69,SE,134,0.0,0.0,54,0.00,,CLR,0.00,VWS V14.01,2013-07-01 08:23:00,
2013-07-01 01:28:00,73.3,55.7,29.69,SE,132,0.0,1.0,54,0.00,,CLR,0.00,VWS V14.01,2013-07-01 08:28:00,
2013-07-01 01:33:00,73.1,56.0,29.69,SE,134,0.0,0.0,55,0.00,,CLR,0.00,VWS V14.01,2013-07-01 08:33:00,
2013-07-01 01:38:00,72.9,56.3,29.69,SE,134,0.0,0.0,56,0.00,,CLR,0.00,VWS V14.01,2013-07-01 08:38:00,
2013-07-01 01:43:00,72.7,56.1,29.69,SE,132,0.0,0.0,56,0.00,,CLR,0.00,VWS V14.01,2013-07-01 08:43:00,
2013-07-01 01:48:00,72.4,56.3,29.69,SE,134,0.0,0.0,57,0.00,,CLR,0.00,VWS V14.01,2013-07-01 08:48:00,
2013-07-01 01:53:00,72.1,56.0,29.70,SE,132,0.0,0.0,57,0.00,,CLR,0.00,VWS V14.01,2013-07-01 08:53:00,
2013-07-01 01:58:00,71.8,56.2,29.69,SE,132,0.0,0.0,58,0.00,,CLR,0.00,VWS V14.01,2013-07-01 08:58:00,
2013-07-01 02:03:00,71.5,56.0,29.69,SE,132,0.0,0.0,58,0.00,,CLR,0.00,VWS V14.01,2013-07-01 09:03:00,
2013-07-01 02:08:00,71.6,56.1,29.69,SE,132,0.0,0.0,58,0.00,,CLR,0.00,VWS V14.01,2013-07-01 09:08:00,
2013-07-01 02:13:00,71.6,56.5,29.70,SE,132,0.0,0.0,59,0.00,,CLR,0.00,VWS V14.01,2013-07-01 09:13:00,
2013-07-01 02:18:00,71.4,56.3,29.69,SE,132,0.0,0.0,59,0.00,,CLR,0.00,VWS V14.01,2013-07-01 09:18:00,
2013-07-01 02:23:00,71.2,56.2,29.69,SE,132,0.0,0.0,59,0.00,,CLR,0.00,VWS V14.01,2013-07-01 09:23:00,
2013-07-01 02:28:00,71.0,56.4,29.69,SE,133,0.0,0.0,60,0.00,,CLR,0.00,VWS V14.01,2013-07-01 09:28:00,
2013-07-01 02:33:00,70.9,56.3,29.69,SE,132,0.0,0.0,60,0.00,,CLR,0.00,VWS V14.01,2013-07-01 09:33:00,
2013-07-01 02:38:00,70.7,56.2,29.70,SE,134,0.0,0.0,60,0.00,,CLR,0.00,VWS V14.01,2013-07-01 09:38:00,
2013-07-01 02:43:00,70.7,56.6,29.70,SE,134,0.0,0.0,61,0.00,,CLR,0.00,VWS V14.01,2013-07-01 09:43:00,
2013-07-01 02:48:00,70.4,56.3,29.70,SE,132,0.0,0.0,61,0.00,,CLR,0.00,VWS V14.01,2013-07-01 09:48:00,
2013-07-01 02:53:00,70.4,56.3,29.70,SE,133,0.0,0.0,61,0.00,,CLR,0.00,VWS V14.01,2013-07-01 09:53:00,
2013-07-01 02:58:00,70.2,56.6,29.70,SE,132,0.0,0.0,62,0.00,,CLR,0.00,VWS V14.01,2013-07-01 09:58:00,
2013-07-01 03:03:00,70.2,56.1,29.70,SE,133,0.0,0.0,61,0.00,,CLR,0.00,VWS V14.01,2013-07-01 10:03:00,
2013-07-01 03:08:00,69.9,56.3,29.70,SE,134,0.0,0.0,62,0.00,,CLR,0.00,VWS V14.01,2013-07-01 10:08:00,
2013-07-01 03:13:00,69.6,56.0,29.70,SE,134,0.0,0.0,62,0.00,,CLR,0.00,VWS V14.01,2013-07-01 10:13:00,
2013-07-01 03:18:00,69.4,56.3,29.70,SE,134,0.0,0.0,63,0.00,,CLR,0.00,VWS V14.01,2013-07-01 10:18:00,
2013-07-01 03:23:00,69.0,55.9,29.71,SE,134,0.0,0.0,63,0.00,,CLR,0.00,VWS V14.01,2013-07-01 10:23:00,
2013-07-01 03:28:00,69.1,56.4,29.71,SE,132,0.0,0.0,64,0.00,,CLR,0.00,VWS V14.01,2013-07-01 10:28:00,
2013-07-01 03:33:00,69.1,56.0,29.71,SE,133,0.0,0.0,63,0.00,,CLR,0.00,VWS V14.01,2013-07-01 10:33:00,
2013-07-01 03:38:00,69.1,56.0,29.71,North,360,0.0,1.0,63,0.00,,CLR,0.00,VWS V14.01,2013-07-01 10:38:00,
2013-07-01 03:43:00,69.2,56.1,29.71,North,359,0.0,1.0,63,0.00,,CLR,0.00,VWS V14.01,2013-07-01 10:43:00,
2013-07-01 03:48:00,69.1,56.0,29.71,North,357,0.0,1.0,63,0.00,,CLR,0.00,VWS V14.01,2013-07-01 10:48:00,
2013-07-01 03:53:00,69.0,56.3,29.71,North,356,0.0,1.0,64,0.00,,CLR,0.00,VWS V14.01,2013-07-01 10:53:00,
2013-07-01 03:58:00,68.8,56.1,29.71,NNE,29,0.0,1.0,64,0.00,,CLR,0.00,VWS V14.01,2013-07-01 10:58:00,
2013-07-01 04:03:00,68.5,56.3,29.71,NNE,29,0.0,0.0,65,0.00,,CLR,0.00,VWS V14.01,2013-07-01 11:03:00,
2013-07-01 04:08:00,68.3,56.5,29.71,NNE,28,0.0,0.0,66,0.00,,CLR,0.00,VWS V14.01,2013-07-01 11:08:00,
2013-07-01 04:13:00,68.1,56.3,29.71,NNE,29,0.0,1.0,66,0.00,,CLR,0.00,VWS V14.01,2013-07-01 11:13:00,
2013-07-01 04:18:00,68.1,56.3,29.71,NNE,28,0.0,1.0,66,0.00,,CLR,0.00,VWS V14.01,2013-07-01 11:18:00,
2013-07-01 04:23:00,68.0,56.7,29.71,NNE,29,0.0,1.0,67,0.00,,CLR,0.00,VWS V14.01,2013-07-01 11:23:00,
2013-07-01 04:28:00,68.0,56.7,29.72,NNE,29,0.0,1.0,67,0.00,,CLR,0.00,VWS V14.01,2013-07-01 11:28:00,
2013-07-01 04:33:00,67.9,56.5,29.72,NNE,29,0.0,0.0,67,0.00,,CLR,0.00,VWS V14.01,2013-07-01 11:33:00,
2013-07-01 04:38:00,67.6,56.7,29.72,NNE,28,0.0,0.0,68,0.00,,CLR,0.00,VWS V14.01,2013-07-01 11:38:00,
2013-07-01 04:44:00,67.4,56.9,29.72,NNE,28,0.0,0.0,69,0.00,,CLR,0.00,VWS V14.01,2013-07-01 11:44:00,
2013-07-01 04:48:00,67.2,56.7,29.72,NNE,28,0.0,0.0,69,0.00,,CLR,0.00,VWS V14.01,2013-07-01 11:48:00,
2013-07-01 04:54:00,67.2,56.7,29.72,NNE,29,0.0,0.0,69,0.00,,CLR,0.00,VWS V14.01,2013-07-01 11:54:00,
2013-07-01 04:59:00,67.0,57.3,29.73,NNE,28,0.0,0.0,71,0.00,,CLR,0.00,VWS V14.01,2013-07-01 11:59:00,
2013-07-01 05:04:00,67.1,57.0,29.73,NNE,29,0.0,0.0,70,0.00,,CLR,0.00,VWS V14.01,2013-07-01 12:04:00,
2013-07-01 05:09:00,67.1,57.4,29.73,NNE,28,0.0,0.0,71,0.00,,CLR,0.00,VWS V14.01,2013-07-01 12:09:00,
2013-07-01 05:14:00,67.0,56.9,29.73,NNE,28,0.0,0.0,70,0.00,,CLR,0.00,VWS V14.01,2013-07-01 12:14:00,
2013-07-01 05:19:00,67.3,57.6,29.73,NNE,28,0.0,0.0,71,0.00,,CLR,0.00,VWS V14.01,2013-07-01 12:19:00,
2013-07-01 05:24:00,67.7,57.2,29.73,NNE,29,0.0,1.0,69,0.00,,CLR,0.00,VWS V14.01,2013-07-01 12:24:00,
2013-07-01 05:29:00,67.9,57.0,29.73,NNE,29,0.0,1.0,68,0.00,,CLR,0.00,VWS V14.01,2013-07-01 12:29:00,
2013-07-01 05:34:00,67.9,57.0,29.73,NNE,28,0.0,1.0,68,0.00,,CLR,0.00,VWS V14.01,2013-07-01 12:34:00,
2013-07-01 05:39:00,67.7,57.2,29.74,NNE,29,0.0,1.0,69,0.00,,CLR,0.00,VWS V14.01,2013-07-01 12:39:00,
2013-07-01 05:44:00,67.5,57.0,29.74,NNE,29,0.0,1.0,69,0.00,,CLR,0.00,VWS V14.01,2013-07-01 12:44:00,
2013-07-01 05:49:00,67.3,57.2,29.74,NNE,28,0.0,1.0,70,0.00,,CLR,0.00,VWS V14.01,2013-07-01 12:49:00,
2013-07-01 05:54:00,67.4,57.7,29.74,NE,34,0.0,1.0,71,0.00,,CLR,0.00,VWS V14.01,2013-07-01 12:54:00,
2013-07-01 05:59:00,67.3,57.2,29.74,NE,34,0.0,1.0,70,0.00,,CLR,0.00,VWS V14.01,2013-07-01 12:59:00,
2013-07-01 06:04:00,67.3,57.2,29.74,NE,34,0.0,0.0,70,0.00,,CLR,0.00,VWS V14.01,2013-07-01 13:04:00,
2013-07-01 06:09:00,67.5,57.4,29.74,NNE,33,0.0,0.0,70,0.00,,CLR,0.00,VWS V14.01,2013-07-01 13:09:00,
2013-07-01 06:14:00,67.6,57.1,29.74,NNE,33,0.0,0.0,69,0.00,,CLR,0.00,VWS V14.01,2013-07-01 13:14:00,
2013-07-01 06:19:00,67.7,57.2,29.74,NNE,33,0.0,0.0,69,0.00,,CLR,0.00,VWS V14.01,2013-07-01 13:19:00,
2013-07-01 06:24:00,67.8,57.7,29.75,NNE,33,0.0,0.0,70,0.00,,CLR,0.00,VWS V14.01,2013-07-01 13:24:00,
2013-07-01 06:29:00,68.0,57.9,29.75,NNE,33,0.0,0.0,70,0.00,,CLR,0.00,VWS V14.01,2013-07-01 13:29:00,
2013-07-01 06:34:00,68.0,57.9,29.75,NNE,33,0.0,0.0,70,0.00,,CLR,0.00,VWS V14.01,2013-07-01 13:34:00,
2013-07-01 06:39:00,68.1,57.6,29.75,NNE,33,0.0,0.0,69,0.00,,CLR,0.00,VWS V14.01,2013-07-01 13:39:00,
2013-07-01 06:44:00,68.4,57.8,29.75,NNE,33,0.0,0.0,69,0.00,,CLR,0.00,VWS V14.01,2013-07-01 13:44:00,
2013-07-01 06:49:00,68.5,57.9,29.75,NNE,32,0.0,0.0,69,0.00,,CLR,0.00,VWS V14.01,2013-07-01 13:49:00,
2013-07-01 06:54:00,68.6,57.6,29.75,NNE,33,0.0,0.0,68,0.00,,CLR,0.00,VWS V14.01,2013-07-01 13:54:00,
2013-07-01 06:59:00,68.9,58.3,29.75,NNE,33,0.0,0.0,69,0.00,,CLR,0.00,VWS V14.01,2013-07-01 13:59:00,
2013-07-01 07:04:00,69.4,58.4,29.75,NNE,32,0.0,1.0,68,0.00,,CLR,0.00,VWS V14.01,2013-07-01 14:04:00,
2013-07-01 07:09:00,69.8,57.9,29.75,NNE,32,1.0,1.0,66,0.00,,CLR,0.00,VWS V14.01,2013-07-01 14:09:00,
2013-07-01 07:14:00,69.9,58.0,29.76,NNE,27,0.0,2.0,66,0.00,,CLR,0.00,VWS V14.01,2013-07-01 14:14:00,
2013-07-01 07:19:00,70.0,58.5,29.76,NNE,25,0.0,2.0,67,0.00,,CLR,0.00,VWS V14.01,2013-07-01 14:19:00,
2013-07-01 07:24:00,70.0,59.0,29.76,NNE,20,0.0,2.0,68,0.00,,CLR,0.00,VWS V14.01,2013-07-01 14:24:00,
2013-07-01 07:29:00,70.4,59.3,29.76,NNE,20,0.0,2.0,68,0.00,,CLR,0.00,VWS V14.01,2013-07-01 14:29:00,
2013-07-01 07:34:00,71.2,59.3,29.76,NNE,20,0.0,0.0,66,0.00,,CLR,0.00,VWS V14.01,2013-07-01 14:34:00,
2013-07-01 07:39:00,71.6,59.2,29.76,NNE,21,0.0,2.0,65,0.00,,CLR,0.00,VWS V14.01,2013-07-01 14:39:00,
2013-07-01 07:44:00,71.7,59.8,29.76,NNE,21,0.0,2.0,66,0.00,,CLR,0.00,VWS V14.01,2013-07-01 14:44:00,
2013-07-01 07:49:00,72.2,60.2,29.77,NNE,20,0.0,3.0,66,0.00,,CLR,0.00,VWS V14.01,2013-07-01 14:49:00,
2013-07-01 07:54:00,72.8,60.4,29.77,NNE,22,0.0,3.0,65,0.00,,CLR,0.00,VWS V14.01,2013-07-01 14:54:00,
2013-07-01 07:59:00,73.5,60.6,29.77,NNE,13,0.0,3.0,64,0.00,,CLR,0.00,VWS V14.01,2013-07-01 14:59:00,
2013-07-01 08:04:00,74.1,60.7,29.77,NNE,25,0.0,2.0,63,0.00,,CLR,0.00,VWS V14.01,2013-07-01 15:04:00,
2013-07-01 08:09:00,74.7,60.8,29.78,WSW,249,0.0,2.0,62,0.00,,CLR,0.00,VWS V14.01,2013-07-01 15:09:00,
2013-07-01 08:14:00,75.2,60.8,29.78,North,359,0.0,3.0,61,0.00,,CLR,0.00,VWS V14.01,2013-07-01 15:14:00,
2013-07-01 08:19:00,75.7,60.8,29.78,NNE,17,1.0,3.0,60,0.00,,CLR,0.00,VWS V14.01,2013-07-01 15:19:00,
2013-07-01 08:24:00,76.2,60.8,29.78,NW,321,1.0,3.0,59,0.00,,CLR,0.00,VWS V14.01,2013-07-01 15:24:00,
2013-07-01 08:29:00,76.8,61.4,29.78,NNE,12,0.0,4.0,59,0.00,,CLR,0.00,VWS V14.01,2013-07-01 15:29:00,
2013-07-01 08:34:00,77.5,61.6,29.78,NNE,29,1.0,2.0,58,0.00,,CLR,0.00,VWS V14.01,2013-07-01 15:34:00,
2013-07-01 08:39:00,78.6,62.1,29.78,NE,42,2.0,6.0,57,0.00,,CLR,0.00,VWS V14.01,2013-07-01 15:39:00,
2013-07-01 08:44:00,79.0,62.0,29.78,NE,40,2.0,6.0,56,0.00,,CLR,0.00,VWS V14.01,2013-07-01 15:44:00,
2013-07-01 08:49:00,79.6,62.5,29.78,NNE,19,0.0,6.0,56,0.00,,CLR,0.00,VWS V14.01,2013-07-01 15:49:00,
2013-07-01 08:54:00,80.3,62.2,29.78,NE,47,3.0,6.0,54,0.00,,CLR,0.00,VWS V14.01,2013-07-01 15:54:00,
2013-07-01 08:59:00,80.7,62.0,29.78,NE,50,2.0,6.0,53,0.00,,CLR,0.00,VWS V14.01,2013-07-01 15:59:00,
2013-07-01 09:04:00,81.4,62.6,29.78,NE,43,1.0,4.0,53,0.00,,CLR,0.00,VWS V14.01,2013-07-01 16:04:00,
2013-07-01 09:09:00,82.2,62.3,29.78,NNE,28,2.0,4.0,51,0.00,,CLR,0.00,VWS V14.01,2013-07-01 16:09:00,
2013-07-01 09:14:00,82.9,61.8,29.78,North,9,2.0,5.0,49,0.00,,CLR,0.00,VWS V14.01,2013-07-01 16:14:00,
2013-07-01 09:19:00,83.7,62.0,29.78,North,10,1.0,6.0,48,0.00,,CLR,0.00,VWS V14.01,2013-07-01 16:19:00,
2013-07-01 09:24:00,84.5,61.5,29.78,North,355,2.0,8.0,46,0.00,,CLR,0.00,VWS V14.01,2013-07-01 16:24:00,
2013-07-01 09:29:00,85.1,62.0,29.78,NW,305,4.0,8.0,46,0.00,,CLR,0.00,VWS V14.01,2013-07-01 16:29:00,
2013-07-01 09:34:00,85.6,61.8,29.78,NNE,28,5.0,8.0,45,0.00,,CLR,0.00,VWS V14.01,2013-07-01 16:34:00,
2013-07-01 09:39:00,86.4,62.6,29.78,NE,45,3.0,8.0,45,0.00,,CLR,0.00,VWS V14.01,2013-07-01 16:39:00,
2013-07-01 09:44:00,86.6,62.8,29.78,NNE,15,4.0,8.0,45,0.00,,CLR,0.00,VWS V14.01,2013-07-01 16:44:00,
2013-07-01 09:49:00,86.8,62.3,29.78,NNE,25,3.0,9.0,44,0.00,,CLR,0.00,VWS V14.01,2013-07-01 16:49:00,
2013-07-01 09:54:00,87.3,62.1,29.77,NNW,342,5.0,12.0,43,0.00,,CLR,0.00,VWS V14.01,2013-07-01 16:54:00,
2013-07-01 09:59:00,87.7,62.5,29.78,NE,38,4.0,12.0,43,0.00,,CLR,0.00,VWS V14.01,2013-07-01 16:59:00,
2013-07-01 10:04:00,88.4,62.4,29.77,NNE,28,4.0,7.0,42,0.00,,CLR,0.00,VWS V14.01,2013-07-01 17:04:00,
2013-07-01 10:09:00,88.6,61.9,29.77,NNE,15,4.0,10.0,41,0.00,,CLR,0.00,VWS V14.01,2013-07-01 17:09:00,
2013-07-01 10:14:00,88.9,62.2,29.77,North,360,2.0,10.0,41,0.00,,CLR,0.00,VWS V14.01,2013-07-01 17:14:00,
2013-07-01 10:19:00,89.0,62.3,29.77,East,98,4.0,10.0,41,0.00,,CLR,0.00,VWS V14.01,2013-07-01 17:19:00,
2013-07-01 10:24:00,89.1,62.4,29.77,NNE,28,6.0,12.0,41,0.00,,CLR,0.00,VWS V14.01,2013-07-01 17:24:00,
2013-07-01 10:29:00,89.5,62.7,29.78,North,10,3.0,12.0,41,0.00,,CLR,0.00,VWS V14.01,2013-07-01 17:29:00,
2013-07-01 10:34:00,89.9,63.1,29.78,ENE,77,7.0,8.0,41,0.00,,CLR,0.00,VWS V14.01,2013-07-01 17:34:00,
2013-07-01 10:40:00,89.9,63.1,29.78,NE,37,7.0,9.0,41,0.00,,CLR,0.00,VWS V14.01,2013-07-01 17:40:00,
2013-07-01 10:44:00,89.7,62.2,29.78,NNE,15,2.0,11.0,40,0.00,,CLR,0.00,VWS V14.01,2013-07-01 17:44:00,
2013-07-01 10:50:00,90.3,62.0,29.78,NE,49,7.0,11.0,39,0.00,,CLR,0.00,VWS V14.01,2013-07-01 17:50:00,
2013-07-01 10:55:00,90.9,61.8,29.78,NNE,19,3.0,11.0,38,0.00,,CLR,0.00,VWS V14.01,2013-07-01 17:55:00,
2013-07-01 11:00:00,91.4,63.0,29.78,NE,45,1.0,11.0,39,0.00,,CLR,0.00,VWS V14.01,2013-07-01 18:00:00,
2013-07-01 11:05:00,91.9,61.9,29.78,NE,49,3.0,8.0,37,0.00,,CLR,0.00,VWS V14.01,2013-07-01 18:05:00,
2013-07-01 11:10:00,92.0,61.2,29.78,NE,39,1.0,8.0,36,0.00,,CLR,0.00,VWS V14.01,2013-07-01 18:10:00,
2013-07-01 11:15:00,92.2,60.6,29.78,NE,49,6.0,9.0,35,0.00,,CLR,0.00,VWS V14.01,2013-07-01 18:15:00,
2013-07-01 11:20:00,92.7,60.2,29.78,NNE,20,2.0,9.0,34,0.00,,CLR,0.00,VWS V14.01,2013-07-01 18:20:00,
2013-07-01 11:25:00,93.4,64.0,29.79,East,87,0.0,9.0,38,0.00,,CLR,0.00,VWS V14.01,2013-07-01 18:25:00,
2013-07-01 11:30:00,93.8,63.6,29.79,NE,49,0.0,9.0,37,0.00,,CLR,0.00,VWS V14.01,2013-07-01 18:30:00,
2013-07-01 11:35:00,94.0,60.5,29.79,NNE,22,4.0,6.0,33,0.00,,CLR,0.00,VWS V14.01,2013-07-01 18:35:00,
2013-07-01 11:40:00,94.2,61.6,29.78,NE,45,1.0,6.0,34,0.00,,CLR,0.00,VWS V14.01,2013-07-01 18:40:00,
2013-07-01 11:45:00,94.5,61.8,29.78,North,354,2.0,6.0,34,0.00,,CLR,0.00,VWS V14.01,2013-07-01 18:45:00,
2013-07-01 11:50:00,94.6,61.9,29.78,North,9,0.0,6.0,34,0.00,,CLR,0.00,VWS V14.01,2013-07-01 18:50:00,
2013-07-01 11:55:00,94.8,62.1,29.78,NNE,29,0.0,7.0,34,0.00,,CLR,0.00,VWS V14.01,2013-07-01 18:55:00,
2013-07-01 12:00:00,94.9,63.0,29.78,North,5,1.0,7.0,35,0.00,,CLR,0.00,VWS V14.01,2013-07-01 19:00:00,
2013-07-01 12:05:00,95.5,61.8,29.78,NNE,22,2.0,6.0,33,0.00,,CLR,0.00,VWS V14.01,2013-07-01 19:05:00,
2013-07-01 12:10:00,95.9,61.3,29.78,NNE,27,1.0,6.0,32,0.00,,CLR,0.00,VWS V14.01,2013-07-01 19:10:00,
2013-07-01 12:15:00,95.9,62.2,29.78,North,10,0.0,7.0,33,0.00,,CLR,0.00,VWS V14.01,2013-07-01 19:15:00,
2013-07-01 12:20:00,96.7,61.1,29.78,NE,49,0.0,7.0,31,0.00,,CLR,0.00,VWS V14.01,2013-07-01 19:20:00,
2013-07-01 12:25:00,97.5,61.8,29.78,East,89,1.0,7.0,31,0.00,,CLR,0.00,VWS V14.01,2013-07-01 19:25:00,
2013-07-01 12:30:00,97.7,60.1,29.78,NE,41,3.0,7.0,29,0.00,,CLR,0.00,VWS V14.01,2013-07-01 19:30:00,
2013-07-01 12:35:00,97.7,62.0,29.78,East,96,1.0,5.0,31,0.00,,CLR,0.00,VWS V14.01,2013-07-01 19:35:00,
2013-07-01 12:40:00,98.6,63.7,29.78,ENE,58,2.0,5.0,32,0.00,,CLR,0.00,VWS V14.01,2013-07-01 19:40:00,
2013-07-01 12:45:00,99.1,63.2,29.78,ESE,115,0.0,5.0,31,0.00,,CLR,0.00,VWS V14.01,2013-07-01 19:45:00,
2013-07-01 12:50:00,99.9,62.9,29.77,NE,41,5.0,6.0,30,0.00,,CLR,0.00,VWS V14.01,2013-07-01 19:50:00,
2013-07-01 12:55:00,99.9,62.0,29.78,East,86,1.0,6.0,29,0.00,,CLR,0.00,VWS V14.01,2013-07-01 19:55:00,
2013-07-01 13:00:00,100.1,63.1,29.78,NNE,32,1.0,6.0,30,0.00,,CLR,0.00,VWS V14.01,2013-07-01 20:00:00,
2013-07-01 13:05:00,100.7,62.7,29.78,NNE,15,3.0,3.0,29,0.00,,CLR,0.00,VWS V14.01,2013-07-01 20:05:00,
2013-07-01 13:10:00,101.1,64.0,29.78,North,1,1.0,3.0,30,0.00,,CLR,0.00,VWS V14.01,2013-07-01 20:10:00,
2013-07-01 13:15:00,101.3,62.2,29.78,NNE,23,1.0,4.0,28,0.00,,CLR,0.00,VWS V14.01,2013-07-01 20:15:00,
2013-07-01 13:20:00,101.2,60.0,29.78,NNE,23,0.0,4.0,26,0.00,,CLR,0.00,VWS V14.01,2013-07-01 20:20:00,
2013-07-01 13:25:00,101.2,60.0,29.77,ESE,123,2.0,5.0,26,0.00,,CLR,0.00,VWS V14.01,2013-07-01 20:25:00,
2013-07-01 13:30:00,101.2,60.0,29.78,WNW,300,0.0,6.0,26,0.00,,CLR,0.00,VWS V14.01,2013-07-01 20:30:00,
2013-07-01 13:35:00,101.5,59.2,29.77,NNW,341,0.0,5.0,25,0.00,,CLR,0.00,VWS V14.01,2013-07-01 20:35:00,
2013-07-01 13:40:00,101.4,61.2,29.77,NE,43,2.0,5.0,27,0.00,,CLR,0.00,VWS V14.01,2013-07-01 20:40:00,
2013-07-01 13:45:00,101.9,60.6,29.77,NNE,13,2.0,5.0,26,0.00,,CLR,0.00,VWS V14.01,2013-07-01 20:45:00,
2013-07-01 13:50:00,102.1,60.8,29.77,North,8,1.0,6.0,26,0.00,,CLR,0.00,VWS V14.01,2013-07-01 20:50:00,
2013-07-01 13:55:00,102.2,58.6,29.77,South,170,0.0,6.0,24,0.00,,CLR,0.00,VWS V14.01,2013-07-01 20:55:00,
2013-07-01 14:00:00,102.1,57.3,29.77,NW,319,0.0,6.0,23,0.00,,CLR,0.00,VWS V14.01,2013-07-01 21:00:00,
2013-07-01 14:05:00,102.0,60.7,29.77,NE,54,0.0,4.0,26,0.00,,CLR,0.00,VWS V14.01,2013-07-01 21:05:00,
2013-07-01 14:10:00,102.3,60.9,29.77,ESE,114,2.0,6.0,26,0.00,,CLR,0.00,VWS V14.01,2013-07-01 21:10:00,
2013-07-01 14:15:00,102.4,62.1,29.77,SE,127,3.0,6.0,27,0.00,,CLR,0.00,VWS V14.01,2013-07-01 21:15:00,
2013-07-01 14:20:00,102.3,62.0,29.77,East,86,2.0,6.0,27,0.00,,CLR,0.00,VWS V14.01,2013-07-01 21:20:00,
2013-07-01 14:25:00,102.1,60.8,29.77,South,174,2.0,6.0,26,0.00,,CLR,0.00,VWS V14.01,2013-07-01 21:25:00,
2013-07-01 14:30:00,102.5,58.8,29.76,NNW,346,2.0,6.0,24,0.00,,CLR,0.00,VWS V14.01,2013-07-01 21:30:00,
2013-07-01 14:35:00,102.6,61.2,29.76,NNE,18,0.0,2.0,26,0.00,,CLR,0.00,VWS V14.01,2013-07-01 21:35:00,
2013-07-01 14:40:00,103.6,60.9,29.76,East,91,1.0,4.0,25,0.00,,CLR,0.00,VWS V14.01,2013-07-01 21:40:00,
2013-07-01 14:41:00,103.7,62.1,29.76,SE,131,4.0,5.0,26,0.00,,CLR,0.00,VWS V14.01,2013-07-01 21:41:00,
2013-07-01 14:46:00,104.4,62.7,29.76,East,79,0.0,5.0,26,0.00,,CLR,0.00,VWS V14.01,2013-07-01 21:46:00,
2013-07-01 14:51:00,104.3,61.5,29.76,SE,129,3.0,5.0,25,0.00,,CLR,0.00,VWS V14.01,2013-07-01 21:51:00,
2013-07-01 14:56:00,104.2,61.4,29.76,SE,124,1.0,5.0,25,0.00,,CLR,0.00,VWS V14.01,2013-07-01 21:56:00,
2013-07-01 15:01:00,104.3,62.6,29.76,SE,130,2.0,6.0,26,0.00,,CLR,0.00,VWS V14.01,2013-07-01 22:01:00,
2013-07-01 15:06:00,104.4,61.6,29.76,South,188,0.0,3.0,25,0.00,,CLR,0.00,VWS V14.01,2013-07-01 22:06:00,
2013-07-01 15:11:00,104.3,60.3,29.76,SSE,149,1.0,5.0,24,0.00,,CLR,0.00,VWS V14.01,2013-07-01 22:11:00,
2013-07-01 15:16:00,104.5,60.5,29.75,NE,53,0.0,5.0,24,0.00,,CLR,0.00,VWS V14.01,2013-07-01 22:16:00,
2013-07-01 15:21:00,104.5,61.7,29.75,SE,138,1.0,5.0,25,0.00,,CLR,0.00,VWS V14.01,2013-07-01 22:21:00,
2013-07-01 15:26:00,104.8,61.9,29.75,SSE,150,2.0,5.0,25,0.00,,CLR,0.00,VWS V14.01,2013-07-01 22:26:00,
2013-07-01 15:31:00,105.1,63.3,29.75,WSW,240,0.0,0.0,26,0.00,,CLR,0.00,VWS V14.01,2013-07-01 22:31:00,
2013-07-01 15:36:00,105.4,61.3,29.75,SE,127,1.0,2.0,24,0.00,,CLR,0.00,VWS V14.01,2013-07-01 22:36:00,
2013-07-01 15:41:00,105.5,61.3,29.75,East,84,1.0,2.0,24,0.00,,CLR,0.00,VWS V14.01,2013-07-01 22:41:00,
2013-07-01 15:46:00,105.2,62.3,29.75,ESE,103,8.0,8.0,25,0.00,,CLR,0.00,VWS V14.01,2013-07-01 22:46:00,
2013-07-01 15:51:00,104.5,60.5,29.75,South,171,2.0,8.0,24,0.00,,CLR,0.00,VWS V14.01,2013-07-01 22:51:00,
2013-07-01 15:56:00,104.3,62.6,29.75,East,96,0.0,8.0,26,0.00,,CLR,0.00,VWS V14.01,2013-07-01 22:56:00,
2013-07-01 16:01:00,104.5,61.7,29.75,ESE,104,1.0,2.0,25,0.00,,CLR,0.00,VWS V14.01,2013-07-01 23:01:00,
2013-07-01 16:06:00,104.5,62.8,29.75,NE,56,3.0,7.0,26,0.00,,CLR,0.00,VWS V14.01,2013-07-01 23:06:00,
2013-07-01 16:11:00,104.4,61.6,29.74,ESE,117,2.0,7.0,25,0.00,,CLR,0.00,VWS V14.01,2013-07-01 23:11:00,
2013-07-01 16:16:00,104.7,60.7,29.74,NE,56,1.0,7.0,24,0.00,,CLR,0.00,VWS V14.01,2013-07-01 23:16:00,
2013-07-01 16:21:00,104.9,60.8,29.74,East,94,1.0,7.0,24,0.00,,CLR,0.00,VWS V14.01,2013-07-01 23:21:00,
2013-07-01 16:26:00,104.7,61.8,29.74,East,96,2.0,7.0,25,0.00,,CLR,0.00,VWS V14.01,2013-07-01 23:26:00,
2013-07-01 16:31:00,104.9,62.0,29.74,ENE,74,1.0,1.0,25,0.00,,CLR,0.00,VWS V14.01,2013-07-01 23:31:00,
2013-07-01 16:36:00,105.4,61.3,29.74,ESE,123,0.0,6.0,24,0.00,,CLR,0.00,VWS V14.01,2013-07-01 23:36:00,
2013-07-01 16:41:00,105.2,59.9,29.74,NE,37,3.0,9.0,23,0.00,,CLR,0.00,VWS V14.01,2013-07-01 23:41:00,
2013-07-01 16:46:00,104.6,60.6,29.74,East,87,1.0,9.0,24,0.00,,CLR,0.00,VWS V14.01,2013-07-01 23:46:00,
2013-07-01 16:51:00,104.8,61.9,29.74,ENE,69,5.0,9.0,25,0.00,,CLR,0.00,VWS V14.01,2013-07-01 23:51:00,
2013-07-01 16:56:00,104.9,59.7,29.74,SSE,155,3.0,9.0,23,0.00,,CLR,0.00,VWS V14.01,2013-07-01 23:56:00,
2013-07-01 17:01:00,104.8,59.6,29.74,SE,134,1.0,2.0,23,0.00,,CLR,0.00,VWS V14.01,2013-07-02 00:01:00,
2013-07-01 17:06:00,104.9,59.7,29.74,SSE,156,3.0,5.0,23,0.00,,CLR,0.00,VWS V14.01,2013-07-02 00:06:00,
2013-07-01 17:11:00,104.7,59.5,29.74,ENE,72,7.0,7.0,23,0.00,,CLR,0.00,VWS V14.01,2013-07-02 00:11:00,
2013-07-01 17:16:00,104.7,59.5,29.74,SSE,149,4.0,7.0,23,0.00,,CLR,0.00,VWS V14.01,2013-07-02 00:16:00,
2013-07-01 17:21:00,104.5,59.3,29.74,SSE,155,3.0,7.0,23,0.00,,CLR,0.00,VWS V14.01,2013-07-02 00:21:00,
2013-07-01 17:26:00,104.6,59.4,29.74,SSE,162,2.0,7.0,23,0.00,,CLR,0.00,VWS V14.01,2013-07-02 00:26:00,
2013-07-01 17:31:00,104.5,58.1,29.73,ENE,70,1.0,6.0,22,0.00,,CLR,0.00,VWS V14.01,2013-07-02 00:31:00,
2013-07-01 17:36:00,104.2,59.1,29.73,ESE,122,3.0,8.0,23,0.00,,CLR,0.00,VWS V14.01,2013-07-02 00:36:00,
2013-07-01 17:41:00,103.9,58.8,29.73,North,351,0.0,8.0,23,0.00,,CLR,0.00,VWS V14.01,2013-07-02 00:41:00,
2013-07-01 17:46:00,103.9,58.8,29.73,ESE,120,2.0,8.0,23,0.00,,CLR,0.00,VWS V14.01,2013-07-02 00:46:00,
2013-07-01 17:51:00,104.0,58.9,29.73,ESE,110,2.0,8.0,23,0.00,,CLR,0.00,VWS V14.01,2013-07-02 00:51:00,
2013-07-01 17:56:00,104.1,59.0,29.73,SW,219,3.0,8.0,23,0.00,,CLR,0.00,VWS V14.01,2013-07-02 00:56:00,
2013-07-01 18:01:00,104.1,60.2,29.73,SSE,157,0.0,6.0,24,0.00,,CLR,0.00,VWS V14.01,2013-07-02 01:01:00,
2013-07-01 18:07:00,103.8,58.7,29.73,East,98,1.0,6.0,23,0.00,,CLR,0.00,VWS V14.01,2013-07-02 01:07:00,
2013-07-01 18:12:00,103.5,59.7,29.73,East,93,2.0,6.0,24,0.00,,CLR,0.00,VWS V14.01,2013-07-02 01:12:00,
2013-07-01 18:17:00,103.2,59.4,29.73,East,93,2.0,6.0,24,0.00,,CLR,0.00,VWS V14.01,2013-07-02 01:17:00,
2013-07-01 18:22:00,103.1,59.3,29.73,ESE,122,3.0,6.0,24,0.00,,CLR,0.00,VWS V14.01,2013-07-02 01:22:00,
2013-07-01 18:27:00,102.9,59.2,29.73,East,80,2.0,6.0,24,0.00,,CLR,0.00,VWS V14.01,2013-07-02 01:27:00,
2013-07-01 18:32:00,102.7,59.0,29.73,ESE,107,1.0,4.0,24,0.00,,CLR,0.00,VWS V14.01,2013-07-02 01:32:00,
2013-07-01 18:37:00,102.5,57.7,29.73,SE,130,3.0,5.0,23,0.00,,CLR,0.00,VWS V14.01,2013-07-02 01:37:00,
2013-07-01 18:42:00,102.6,58.9,29.73,ESE,107,2.0,5.0,24,0.00,,CLR,0.00,VWS V14.01,2013-07-02 01:42:00,
2013-07-01 18:47:00,102.5,58.8,29.73,ESE,103,1.0,5.0,24,0.00,,CLR,0.00,VWS V14.01,2013-07-02 01:47:00,
2013-07-01 18:52:00,102.5,58.8,29.73,SSE,155,2.0,5.0,24,0.00,,CLR,0.00,VWS V14.01,2013-07-02 01:52:00,
2013-07-01 18:57:00,102.5,58.8,29.73,SE,143,2.0,5.0,24,0.00,,CLR,0.00,VWS V14.01,2013-07-02 01:57:00,
2013-07-01 19:02:00,102.2,58.6,29.73,SSE,160,1.0,1.0,24,0.00,,CLR,0.00,VWS V14.01,2013-07-02 02:02:00,
2013-07-01 19:07:00,102.1,59.7,29.73,SE,128,0.0,2.0,25,0.00,,CLR,0.00,VWS V14.01,2013-07-02 02:07:00,
2013-07-01 19:12:00,101.8,58.3,29.73,East,101,1.0,4.0,24,0.00,,CLR,0.00,VWS V14.01,2013-07-02 02:12:00,
2013-07-01 19:17:00,101.4,59.1,29.73,ESE,116,0.0,4.0,25,0.00,,CLR,0.00,VWS V14.01,2013-07-02 02:17:00,
2013-07-01 19:22:00,101.2,60.0,29.73,East,85,0.0,4.0,26,0.00,,CLR,0.00,VWS V14.01,2013-07-02 02:22:00,
2013-07-01 19:27:00,100.6,59.5,29.73,East,96,2.0,4.0,26,0.00,,CLR,0.00,VWS V14.01,2013-07-02 02:27:00,
2013-07-01 19:32:00,100.1,60.1,29.74,SSW,204,0.0,1.0,27,0.00,,CLR,0.00,VWS V14.01,2013-07-02 02:32:00,
2013-07-01 19:37:00,99.9,60.0,29.74,East,94,0.0,2.0,27,0.00,,CLR,0.00,VWS V14.01,2013-07-02 02:37:00,
2013-07-01 19:42:00,99.7,60.8,29.74,SSE,158,1.0,2.0,28,0.00,,CLR,0.00,VWS V14.01,2013-07-02 02:42:00,
2013-07-01 19:47:00,99.1,60.3,29.74,SSE,149,1.0,2.0,28,0.00,,CLR,0.00,VWS V14.01,2013-07-02 02:47:00,
2013-07-01 19:52:00,98.5,60.8,29.74,SW,217,0.0,2.0,29,0.00,,CLR,0.00,VWS V14.01,2013-07-02 02:52:00,
2013-07-01 19:57:00,98.2,60.5,29.74,SW,217,0.0,2.0,29,0.00,,CLR,0.00,VWS V14.01,2013-07-02 02:57:00,
2013-07-01 20:02:00,97.6,60.0,29.74,SSE,150,0.0,1.0,29,0.00,,CLR,0.00,VWS V14.01,2013-07-02 03:02:00,
2013-07-01 20:07:00,97.1,60.5,29.74,SSE,155,0.0,1.0,30,0.00,,CLR,0.00,VWS V14.01,2013-07-02 03:07:00,
2013-07-01 20:12:00,96.4,59.9,29.74,SSE,159,0.0,1.0,30,0.00,,CLR,0.00,VWS V14.01,2013-07-02 03:12:00,
2013-07-01 20:17:00,95.7,60.3,29.74,SSE,159,0.0,1.0,31,0.00,,CLR,0.00,VWS V14.01,2013-07-02 03:17:00,
2013-07-01 20:22:00,95.1,60.6,29.74,SSE,159,0.0,1.0,32,0.00,,CLR,0.00,VWS V14.01,2013-07-02 03:22:00,
2013-07-01 20:27:00,94.5,60.1,29.74,SSE,160,0.0,1.0,32,0.00,,CLR,0.00,VWS V14.01,2013-07-02 03:27:00,
2013-07-01 20:32:00,94.2,60.7,29.74,SSE,160,0.0,0.0,33,0.00,,CLR,0.00,VWS V14.01,2013-07-02 03:32:00,
2013-07-01 20:37:00,93.5,61.0,29.74,SSE,160,0.0,0.0,34,0.00,,CLR,0.00,VWS V14.01,2013-07-02 03:37:00,
2013-07-01 20:42:00,92.9,60.4,29.73,SSE,160,0.0,0.0,34,0.00,,CLR,0.00,VWS V14.01,2013-07-02 03:42:00,
2013-07-01 20:47:00,92.4,60.8,29.73,SSE,160,0.0,0.0,35,0.00,,CLR,0.00,VWS V14.01,2013-07-02 03:47:00,
2013-07-01 20:52:00,92.2,61.4,29.74,SSE,160,0.0,0.0,36,0.00,,CLR,0.00,VWS V14.01,2013-07-02 03:52:00,
2013-07-01 20:57:00,92.5,60.9,29.74,SSE,161,0.0,0.0,35,0.00,,CLR,0.00,VWS V14.01,2013-07-02 03:57:00,
2013-07-01 21:01:00,92.4,61.6,29.74,SSE,160,0.0,0.0,36,0.00,,CLR,0.00,VWS V14.01,2013-07-02 04:01:00,
2013-07-01 21:06:00,92.0,62.0,29.74,SSE,160,0.0,0.0,37,0.00,,CLR,0.00,VWS V14.01,2013-07-02 04:06:00,
2013-07-01 21:11:00,91.5,61.6,29.74,SSE,160,0.0,0.0,37,0.00,,CLR,0.00,VWS V14.01,2013-07-02 04:11:00,
2013-07-01 21:16:00,90.9,61.0,29.74,SSE,160,0.0,0.0,37,0.00,,CLR,0.00,VWS V14.01,2013-07-02 04:16:00,
2013-07-01 21:21:00,90.4,60.6,29.74,SSE,161,0.0,0.0,37,0.00,,CLR,0.00,VWS V14.01,2013-07-02 04:21:00,
2013-07-01 21:26:00,89.8,60.1,29.74,SSE,161,0.0,0.0,37,0.00,,CLR,0.00,VWS V14.01,2013-07-02 04:26:00,
2013-07-01 21:31:00,89.9,61.7,29.74,SSE,160,0.0,0.0,39,0.00,,CLR,0.00,VWS V14.01,2013-07-02 04:31:00,
2013-07-01 21:36:00,89.9,61.7,29.75,SSE,160,0.0,0.0,39,0.00,,CLR,0.00,VWS V14.01,2013-07-02 04:36:00,
2013-07-01 21:41:00,89.7,60.7,29.75,SSE,160,0.0,0.0,38,0.00,,CLR,0.00,VWS V14.01,2013-07-02 04:41:00,
2013-07-01 21:46:00,89.4,60.5,29.75,SSE,160,0.0,0.0,38,0.00,,CLR,0.00,VWS V14.01,2013-07-02 04:46:00,
2013-07-01 21:51:00,89.5,59.8,29.74,SSE,161,0.0,0.0,37,0.00,,CLR,0.00,VWS V14.01,2013-07-02 04:51:00,
2013-07-01 21:56:00,89.4,59.0,29.74,SSE,160,0.0,0.0,36,0.00,,CLR,0.00,VWS V14.01,2013-07-02 04:56:00,
2013-07-01 22:01:00,89.2,58.8,29.75,SSE,160,0.0,0.0,36,0.00,,CLR,0.00,VWS V14.01,2013-07-02 05:01:00,
2013-07-01 22:06:00,89.0,60.1,29.75,SSE,161,0.0,0.0,38,0.00,,CLR,0.00,VWS V14.01,2013-07-02 05:06:00,
2013-07-01 22:11:00,88.8,59.9,29.75,SSE,160,0.0,0.0,38,0.00,,CLR,0.00,VWS V14.01,2013-07-02 05:11:00,
2013-07-01 22:16:00,88.5,59.7,29.75,SSE,160,0.0,0.0,38,0.00,,CLR,0.00,VWS V14.01,2013-07-02 05:16:00,
2013-07-01 22:21:00,88.2,59.4,29.75,SSE,160,0.0,0.0,38,0.00,,CLR,0.00,VWS V14.01,2013-07-02 05:21:00,
2013-07-01 22:26:00,88.1,60.8,29.75,SSE,160,0.0,0.0,40,0.00,,CLR,0.00,VWS V14.01,2013-07-02 05:26:00,
2013-07-01 22:31:00,88.2,61.5,29.76,SSE,160,0.0,0.0,41,0.00,,CLR,0.00,VWS V14.01,2013-07-02 05:31:00,
2013-07-01 22:36:00,88.0,62.0,29.75,SSE,160,0.0,0.0,42,0.00,,CLR,0.00,VWS V14.01,2013-07-02 05:36:00,
2013-07-01 22:41:00,87.8,61.9,29.75,SSE,160,0.0,0.0,42,0.00,,CLR,0.00,VWS V14.01,2013-07-02 05:41:00,
2013-07-01 22:46:00,87.8,61.9,29.75,SSE,160,0.0,0.0,42,0.00,,CLR,0.00,VWS V14.01,2013-07-02 05:46:00,
2013-07-01 22:51:00,87.7,61.8,29.75,SSE,160,0.0,0.0,42,0.00,,CLR,0.00,VWS V14.01,2013-07-02 05:51:00,
2013-07-01 22:56:00,87.4,61.5,29.75,SSE,160,0.0,0.0,42,0.00,,CLR,0.00,VWS V14.01,2013-07-02 05:56:00,
2013-07-01 23:01:00,87.4,62.2,29.75,SSE,159,0.0,0.0,43,0.00,,CLR,0.00,VWS V14.01,2013-07-02 06:01:00,
2013-07-01 23:06:00,87.4,62.2,29.75,SSE,159,0.0,0.0,43,0.00,,CLR,0.00,VWS V14.01,2013-07-02 06:06:00,
2013-07-01 23:11:00,87.2,62.0,29.76,SE,139,0.0,0.0,43,0.00,,CLR,0.00,VWS V14.01,2013-07-02 06:11:00,
2013-07-01 23:16:00,87.0,62.5,29.75,SSE,148,0.0,0.0,44,0.00,,CLR,0.00,VWS V14.01,2013-07-02 06:16:00,
2013-07-01 23:21:00,86.9,62.4,29.76,SSE,148,0.0,0.0,44,0.00,,CLR,0.00,VWS V14.01,2013-07-02 06:21:00,
2013-07-01 23:26:00,86.8,62.9,29.76,SSE,148,0.0,0.0,45,0.00,,CLR,0.00,VWS V14.01,2013-07-02 06:26:00,
2013-07-01 23:31:00,86.6,62.8,29.76,SE,139,0.0,0.0,45,0.00,,CLR,0.00,VWS V14.01,2013-07-02 06:31:00,
2013-07-01 23:36:00,86.6,62.8,29.75,SW,214,0.0,1.0,45,0.00,,CLR,0.00,VWS V14.01,2013-07-02 06:36:00,
2013-07-01 23:41:00,86.5,62.7,29.75,SSE,166,0.0,1.0,45,0.00,,CLR,0.00,VWS V14.01,2013-07-02 06:41:00,
2013-07-01 23:46:00,86.5,62.7,29.75,SSE,167,0.0,1.0,45,0.00,,CLR,0.00,VWS V14.01,2013-07-02 06:46:00,
2013-07-01 23:51:00,86.5,62.7,29.75,SSE,168,0.0,1.0,45,0.00,,CLR,0.00,VWS V14.01,2013-07-02 06:51:00,
2013-07-01 23:56:00,86.4,63.2,29.75,South,186,0.0,1.0,46,0.00,,CLR,0.00,VWS V14.01,2013-07-02 06:56:00,